Weather History for Cork, Ireland

Change the Weather History Date:

Wednesday, September 26, 2012

  Actual Average Record
Temperature  
Mean Temperature 54 °F -  
Max Temperature 59 °F 57 °F 64 °F (1996)
Min Temperature 48 °F 46 °F 42 °F (2007)
Degree Days  
Heating Degree Days 12    
Growing Degree Days 4 (Base 50)    
Moisture  
Dew Point 47 °F    
Average Humidity 80    
Maximum Humidity 94    
Minimum Humidity 63    
Precipitation  
Precipitation 0.00 in 0.16 in - ()
Sea Level Pressure  
Sea Level Pressure 29.46 in    
Wind  
Wind Speed 18 mph ()    
Max Wind Speed 30 mph    
Max Gust Speed 44 mph    
Visibility 6.4 miles    
Events Rain    
Averages and records for this station are not official NWS values.
T = Trace of Precipitation, MM = Missing Value Source: Averaged Metar Reports

Daily Weather History Graph

Daily Weather History Graph

Search for Another Location

Airport:

Trip Planner

Search our weather history database for the weather conditions in past years. The results will help you decide how hot, cold, wet, or windy it might be!

Date:

Astronomy

Sep. 26, 2012 Rise Set
Actual Time 7:27 AM IST 7:22 PM IST
Civil Twilight 6:53 AM IST 7:55 PM IST
Nautical Twilight 6:14 AM IST 8:34 PM IST
Astronomical Twilight 5:33 AM IST 9:15 PM IST
Moon 5:32 PM IST (9/26) 3:15 AM IST (9/26)
Length of Visible Light 13h 02m
Length of Day
11h 55m
Waxing Gibbous, 86% of the Moon is Illuminated
Sep 26
Waxing Gibbous
Sep 30
Full
Oct 8
Last Quarter
Oct 15
New
Oct 22
First Quarter

Hourly Weather History & Observations

Time (IST) Temp. Dew Point Humidity Pressure Visibility Wind Dir Wind Speed Gust Speed Precip Events Conditions
12:00 AM 50.0 °F 48.2 °F 94% 29.27 in 6.2 mi NNW 15.0 mph 26.5 mph N/A   Mostly Cloudy
12:30 AM 50.0 °F 48.2 °F 94% 29.27 in 6.2 mi NNW 13.8 mph - N/A   Mostly Cloudy
1:00 AM 51 °F 47 °F 83% 29.28 in 12 mi NW 15.7 mph - -   Partly Cloudy
1:00 AM 50.0 °F 48.2 °F 94% 29.27 in 6.2 mi NW 15.0 mph - N/A   Mostly Cloudy
1:30 AM 50.0 °F 48.2 °F 94% 29.27 in 6.2 mi NW 18.4 mph - N/A   Mostly Cloudy
2:00 AM 50.0 °F 48.2 °F 94% 29.27 in 6.2 mi NNW 18.4 mph - N/A   Mostly Cloudy
2:30 AM 51.8 °F 48.2 °F 88% 29.27 in 6.2 mi NNW 18.4 mph - N/A   Mostly Cloudy
3:00 AM 51.8 °F 48.2 °F 88% 29.27 in 6.2 mi NW 18.4 mph - N/A   Mostly Cloudy
3:30 AM 51.8 °F 48.2 °F 88% 29.27 in 6.2 mi NW 17.3 mph - N/A   Mostly Cloudy
4:00 AM 51.8 °F 48.2 °F 88% 29.27 in 6.2 mi NNW 21.9 mph - N/A   Mostly Cloudy
4:30 AM 51.8 °F 48.2 °F 88% 29.27 in 6.2 mi NNW 21.9 mph - N/A   Mostly Cloudy
5:00 AM 51.8 °F 46.4 °F 82% 29.27 in 6.2 mi NW 20.7 mph 32.2 mph N/A   Mostly Cloudy
5:30 AM 51.8 °F 46.4 °F 82% 29.30 in 6.2 mi NW 19.6 mph 31.1 mph N/A   Mostly Cloudy
6:00 AM 51.8 °F 46.4 °F 82% 29.30 in 6.2 mi NNW 21.9 mph 34.5 mph N/A   Mostly Cloudy
6:30 AM 51.8 °F 46.4 °F 82% 29.30 in 6.2 mi NNW 20.7 mph - N/A   Mostly Cloudy
7:00 AM 51 °F 47 °F 80% 29.31 in 12 mi NNW 22.4 mph - -   Partly Cloudy
7:00 AM 50.0 °F 46.4 °F 87% 29.30 in 6.2 mi NNW 21.9 mph - N/A   Mostly Cloudy
7:30 AM 51.8 °F 46.4 °F 82% 29.33 in 6.2 mi NNW 18.4 mph 29.9 mph N/A   Mostly Cloudy
8:00 AM 51.8 °F 46.4 °F 82% 29.33 in 6.2 mi NNW 26.5 mph - N/A   Mostly Cloudy
8:30 AM 51.8 °F 46.4 °F 82% 29.33 in 6.2 mi NNW 29.9 mph 43.7 mph N/A   Mostly Cloudy
9:00 AM 51.8 °F 46.4 °F 82% 29.36 in 6.2 mi NNW 29.9 mph - N/A   Mostly Cloudy
9:30 AM 51.8 °F 48.2 °F 88% 29.39 in 6.2 mi NNW 24.2 mph - N/A   Mostly Cloudy
10:00 AM 51.8 °F 48.2 °F 88% 29.39 in 6.2 mi NNW 20.7 mph 33.4 mph N/A   Mostly Cloudy
10:30 AM 53.6 °F 48.2 °F 82% 29.42 in 6.2 mi NNW 20.7 mph - N/A   Mostly Cloudy
11:00 AM 53.6 °F 46.4 °F 77% 29.44 in 6.2 mi NNW 20.7 mph - N/A   Mostly Cloudy
11:30 AM 53.6 °F 48.2 °F 82% 29.44 in 6.2 mi NNW 24.2 mph 36.8 mph N/A   Mostly Cloudy
12:00 PM 55.4 °F 48.2 °F 77% 29.44 in 6.2 mi NNW 21.9 mph - N/A   Mostly Cloudy
12:30 PM 55.4 °F 48.2 °F 77% 29.47 in 6.2 mi North 19.6 mph 38.0 mph N/A   Mostly Cloudy
1:00 PM 57.2 °F 48.2 °F 72% 29.47 in 6.2 mi North 24.2 mph 35.7 mph N/A   Mostly Cloudy
1:30 PM 57.2 °F 46.4 °F 67% 29.50 in 6.2 mi North 26.5 mph 38.0 mph N/A   Mostly Cloudy
2:00 PM 59.0 °F 48.2 °F 67% 29.50 in 6.2 mi North 25.3 mph - N/A   Mostly Cloudy
2:30 PM 59.0 °F 46.4 °F 63% 29.50 in 6.2 mi North 24.2 mph - N/A   Mostly Cloudy
3:00 PM 59.0 °F 48.2 °F 67% 29.50 in 6.2 mi North 27.6 mph - N/A   Mostly Cloudy
3:30 PM 59.0 °F 46.4 °F 63% 29.53 in 6.2 mi North 27.6 mph - N/A   Mostly Cloudy
4:00 PM 59.0 °F 48.2 °F 67% 29.53 in 6.2 mi NNW 27.6 mph - N/A   Mostly Cloudy
4:30 PM 59.0 °F 46.4 °F 63% 29.56 in 6.2 mi North 25.3 mph - N/A   Mostly Cloudy
5:00 PM 57.2 °F 48.2 °F 72% 29.59 in 6.2 mi NNW 20.7 mph - N/A   Mostly Cloudy
5:30 PM 57.2 °F 48.2 °F 72% 29.59 in 6.2 mi NNW 25.3 mph - N/A Rain Light Rain Showers
6:00 PM 57.2 °F 48.2 °F 72% 29.62 in 6.2 mi NNW 19.6 mph - N/A   Scattered Clouds
6:30 PM 55.4 °F 48.2 °F 77% 29.62 in 6.2 mi NNW 23.0 mph - N/A   Partly Cloudy
7:00 PM 54 °F 47 °F 72% 29.65 in 31 mi NNW 20.1 mph - -   Partly Cloudy
7:00 PM 55.4 °F 48.2 °F 77% 29.65 in 6.2 mi NNW 20.7 mph - N/A   Partly Cloudy
7:30 PM 53.6 °F 46.4 °F 77% 29.65 in 6.2 mi NNW 16.1 mph - N/A   Partly Cloudy
8:00 PM 51.8 °F 46.4 °F 82% 29.71 in 6.2 mi NNW 19.6 mph - N/A   Partly Cloudy
8:30 PM 51.8 °F 44.6 °F 76% 29.71 in 6.2 mi NNW 24.2 mph - N/A   Scattered Clouds
9:00 PM 50.0 °F 44.6 °F 82% 29.71 in 6.2 mi NNW 20.7 mph 33.4 mph N/A   Partly Cloudy
9:30 PM 50.0 °F 44.6 °F 82% 29.74 in 6.2 mi NNW 16.1 mph - N/A   Partly Cloudy
10:00 PM 48.2 °F 44.6 °F 87% 29.74 in 6.2 mi NNW 23.0 mph - N/A   Partly Cloudy
10:30 PM 48.2 °F 44.6 °F 87% 29.77 in 6.2 mi NW 19.6 mph - N/A   Partly Cloudy
11:00 PM 48.2 °F 44.6 °F 87% 29.77 in 6.2 mi NW 17.3 mph - N/A   Partly Cloudy
11:30 PM 48.2 °F 44.6 °F 87% 29.77 in 6.2 mi NW 15.0 mph - N/A   Partly Cloudy